www.pogodaiklimat.ru

Погода и климат >> Архив погоды >> Таиланд >> Патхумтхани


ПОГОДА в Патхумтхани

  • Прогноз погоды в Патхумтхани
  • Монитор погоды в Патхумтхани

АРХИВ ПОГОДЫ в Патхумтхани

Время (UTC), дата Ветер
(напр.,м/с)
 
Видим.   Явления Облачность Т
(С)
Тd
(С)
f
(%)
Тe
(С)
Тes
(С)
Комфортность P
(гПа)
Po
(гПа)
Тmin
(С)
Tmax
(С)
R
(мм)
R24
(мм)
S
(см)
00 16.04 В 3 7000 м дымка 3/0
[Cs]
+28.5 +28.1 98 +48 +48 опасность
перегрева
1009.5 1008.7 +27.9
03 16.04 ЮВ 3 8000 м дымка 4/3 600 м
[Cu med, cong Cs]
+34.5 +29.4 75 +59 +68 опасность
перегрева
1011.1 1010.4
06 16.04 ЮЗ 5 8000 м мгла 3/3 600 м
[Cu med, cong Cs]
+37.2 +28.0 60 +58 +66 опасность
перегрева
1009.2 1008.5
09 16.04 ЮВ 5 8000 м мгла {гроза} 5/3 600 м
[Cu med, cong Cs]
+37.5 +28.2 59 +58 +61 опасность
перегрева
1005.7 1004.9
12 16.04 ЮВ 5 8000 м мгла {гроза} 3/0
[Cs]
+34.7 +25.6 59 +49 +49 опасность
перегрева
1007.2 1006.5 +38.6
15 16.04 Ю 3 8000 м дымка 3/0
[Cs]
+31.5 +28.2 83 +52 +52 опасность
перегрева
1009.3 1008.5
18 16.04 штиль 0 8000 м дымка 3/0
[Cs]
+30.2 +28.1 89 +50 +50 опасность
перегрева
1009.3 1008.5
21 16.04 штиль 0 7000 м дымка 4/3 600 м
[Sc Cs]
+29.5 +28.1 92 +49 +49 опасность
перегрева
1008.2 1007.5
00 17.04 В 3 7000 м дымка 3/1 600 м
[Sc Cs]
+28.3 +27.6 96 +46 +47 опасность
перегрева
1009.6 1008.7 +27.8
03 17.04 ЮЗ 3 8000 м дымка 3/1 600 м
[Cu med, cong Cs]
+35.4 +28.4 67 +57 +68 опасность
перегрева
1011.1 1010.3
06 17.04 З 6 8000 м мгла 3/3 600 м
[Cu med, cong Cs]
+38.5 +27.2 53 +56 +62 опасность
перегрева
1009.4 1008.6
09 17.04 ЮЗ 4 8000 м мгла 1/0
[Cs]
+38.6 +27.1 52 +56 +61 опасность
перегрева
1006.2 1005.4
12 17.04 Ю 6 8000 м мгла 3/0
[Cs]
+34.8 +22.8 50 +45 +45 опасность
перегрева
1005.9 1005.2 +39.8
15 17.04 Ю 6 8000 м дымка 3/0
[Cs]
+32.0 +26.9 74 +49 +49 опасность
перегрева
1009.0 1008.3
18 17.04 Ю 5 8000 м дымка 1/0
[Cs]
+30.8 +28.3 87 +52 +52 опасность
перегрева
1008.2 1007.4
21 17.04 ЮВ 3 8000 м дымка 1/0
[Cs]
+30.1 +28.3 90 +51 +51 опасность
перегрева
1006.9 1006.1
00 18.04 ЮВ 2 9000 м дымка 1/0
[Cs]
+29.0 +27.9 94 +48 +49 опасность
перегрева
1008.9 1008.1 +28.5
03 18.04 Ю 4 9000 м дымка 3/0
[Cs]
+35.5 +28.0 65 +56 +66 опасность
перегрева
1010.0 1009.2
06 18.04 Ю 6 9000 м мгла 8/4 600 м
[Cu Sc Ac lent Cs]
+37.5 +29.5 64 +62 +66 опасность
перегрева
1008.0 1007.2
09 18.04 В 7 9000 м гроза без осадков 10/4 600 м
[Cb cap Ac lent Cs]
+35.5 +28.0 65 +56 +56 опасность
перегрева
1005.1 1004.3
12 18.04 Ю 8 8000 м дымка {гроза} 5/0
[Cs]
+34.0 +27.9 71 +55 +55 опасность
перегрева
1006.0 1005.2 +39.6
15 18.04 Ю 7 8000 м дымка 3/0
[Cs]
+31.5 +28.1 82 +52 +52 опасность
перегрева
1009.0 1008.2
18 18.04 Ю 6 8000 м дымка 3/0
[Cs]
+30.9 +27.9 84 +51 +51 опасность
перегрева
1008.6 1007.8
21 18.04 Ю 2 8000 м дымка 3/0
[Cs]
+30.2 +27.4 85 +48 +48 опасность
перегрева
1007.8 1007.0
00 19.04 В 1 8000 м дымка 8/3 1000 м
[Cu med, cong Ac lent Cs]
+29.5 +28.4 94 +50 +51 опасность
перегрева
1007.3 1006.5 +29.4
03 19.04 Ю 5 8000 м дымка 5/1 1000 м
[Cu hum Ac lent Cs]
+35.5 +28.0 65 +56 +62 опасность
перегрева
1009.0 1008.3
06 19.04 ЮЗ 2 8000 м мгла 5/3 1000 м
[Cu med, cong Cs]
+38.8 +27.8 54 +58 +72 опасность
перегрева
1006.6 1005.8
09 19.04 ЮЗ 5 8000 м мгла 4/3 1000 м
[Cu med, cong Cs]
+38.4 +27.5 54 +57 +60 опасность
перегрева
1003.6 1002.8
12 19.04 Ю 3 8000 м мгла 4/0
[Cs]
+34.5 +26.2 62 +51 +51 опасность
перегрева
1004.2 1003.4 +39.8
15 19.04 ЮЗ 2 8000 м дымка 3/0
[Cs]
+32.0 +27.7 78 +52 +52 опасность
перегрева
1007.2 1006.4
18 19.04 ЮЗ 3 8000 м дымка 3/0
[Cs]
+31.0 +28.4 86 +52 +52 опасность
перегрева
1005.9 1005.2
21 19.04 Ю 3 8000 м дымка 3/0
[Cs]
+30.2 +29.0 93 +53 +53 опасность
перегрева
1004.9 1004.1
00 20.04 Ю 1 8000 м дымка 3/0
[Ac lent Cs]
+29.1 +28.1 94 +48 +49 опасность
перегрева
1006.2 1005.4 +28.3
03 20.04 ЮЗ 2 8000 м мгла 3/0
[Cs]
+34.5 +23.6 53 +45 +60 опасность
перегрева
1007.5 1006.7
06 20.04 ЮЗ 5 8000 м мгла 3/0
[Cs]
+38.8 +25.3 47 +53 +63 опасность
перегрева
1005.1 1004.4
12 20.04 Ю 2 8000 м мгла 5/0
[Ac lent Cs]
+36.1 +26.1 57 +52 +52 опасность
перегрева
1002.1 1001.4 +41.2
15 20.04 Ю 8 8000 м дымка 3/0
[Ac lent Cs]
+32.3 +27.9 78 +53 +53 опасность
перегрева
1004.9 1004.1
18 20.04 Ю 3 8000 м дымка 3/0
[Cs]
+30.6 +27.8 85 +50 +50 опасность
перегрева
1004.5 1003.8
21 20.04 штиль 0 8000 м дымка 3/0
[Cs]
+29.0 +27.9 94 +48 +48 опасность
перегрева
1003.7 1002.9
00 21.04 В 4 10 км 1/0
[Cs]
+28.5 +27.8 96 +47 +47 опасность
перегрева
1005.7 1004.9 +27.7
03 21.04 ЮВ 9 10 км 4/0
[Cs]
+35.2 +29.6 73 +61 +62 опасность
перегрева
1006.6 1005.9
06 21.04 ЮЗ 6 10 км 4/0
[Cs]
+38.0 +35.5 87 +90 +98 опасность
перегрева
1005.8 1005.1
09 21.04 ЮЗ 9 10 км 3/0
[Cs]
+39.5 +26.8 49 +56 +57 опасность
перегрева
1002.4 1001.7
12 21.04 Ю 6 9000 м мгла 3/0
[Cs]
+35.0 +26.0 60 +51 +51 опасность
перегрева
1002.6 1001.8 +40.2
15 21.04 Ю 2 8000 м дымка 1/0
[Cs]
+32.5 +27.0 73 +51 +51 опасность
перегрева
1005.7 1004.9
18 21.04 Ю 2 8000 м дымка 1/0
[Cs]
+31.5 +26.6 75 +48 +48 опасность
перегрева
1005.3 1004.6
21 21.04 Ю 2 8000 м дымка 1/0
[Cs]
+30.0 +26.8 83 +47 +47 опасность
перегрева
1004.8 1004.0
00 22.04 В 2 8000 м дымка 4/3 1000 м
[Cu hum Cs]
+28.3 +27.2 94 +45 +46 опасность
перегрева
1006.1 1005.3 +27.6
03 22.04 ЮЗ 3 8000 м дымка 8/5 1000 м
[Cu med, cong Cs]
+35.0 +28.2 68 +56 +62 опасность
перегрева
1007.5 1006.7
06 22.04 ЮЗ 13 8000 м мгла 8/5 1000 м
[Cu med, cong Cs]
+37.5 +28.2 59 +58 +58 опасность
перегрева
1005.6 1004.8
09 22.04 Ю 1 8000 м мгла 8/4 1000 м
[Cu med, cong Ac As Cs]
+36.0 +27.8 63 +56 +60 опасность
перегрева
1003.1 1002.3
12 22.04 ЮЗ 4 8000 м дымка 5/0
[Ac As Cs]
+33.0 +28.1 76 +54 +54 опасность
перегрева
1005.0 1004.3 +38.5
15 22.04 штиль 0 8000 м дымка 4/1 1000 м
[Cu hum Ac As Cs]
+31.9 +27.9 79 +52 +52 опасность
перегрева
1008.5 1007.7
18 22.04 С 3 6000 м гроза, ливневой дождь 10/6 1000 м
[Cb cap Ac As]
+25.5 +25.3 99 +37 +37 очень
душно
1009.2 1008.4 21
21 22.04 СЗ 3 8000 м дымка {гроза} 10/3 1000 м
[Sc Ac As Cs]
+25.9 +25.7 99 +38 +38 очень
душно
1008.6 1007.7 0.0

 

Местоположение метеостанции Патхумтхани (Таиланд): широта 14.10 долгота 100.62 высота над уровнем моря 7 м.

В архиве по умолчанию представлена погода в Патхумтхани за последнюю неделю. Архивные данные за месяц целиком и за предыдущие месяцы, начиная с января 2011 года, Вы можете получить, выбрав интересующий диапазон дат из раскрывающегося списка и нажав кнопку "Ввод!".


*Определитесь, кто Вы:
робот инопланетянин человек

Внимание! Время в таблицах - всемирное. Для получения местного времени необходимо прибавить поправку, которая равна 7 ч.

Смотрите также архив погоды в соседних городах и на ближайших метеорологических станциях:

Погода в Дон Муанг (Таиланд) (20 км)
Погода в Бангкоке (Таиланд) (42 км)
Погода в Бангкоке 2 (Таиланд) (45 км)
Погода в Бангна Агромете (Таиланд) (48 км)
Погода в Аюттхая (Таиланд) (48 км)
Погода в Аэропорту Суварнабхуми (Таиланд) (49 км)
Погода в Сарабури (Таиланд) (57 км)
Погода в Самутрудкан Агромете (Таиланд) (66 км)
Погода в Суфанбури (Таиланд) (67 км)
Погода в Накхонпатхоме (Таиланд) (71 км)

Пояснения к столбцам:

Ветер - указаны скорость ветра в м/с - средняя за 10 мин, порывы в срок и между сроками (в фигурных скобках) и направление, откуда дует ветер: С - северный, СВ - северо-восточный, В - восточный, ЮВ - юго-восточный, Ю - южный, ЮЗ - юго-западный, З - западный, СЗ - северо-западный.
Видимость - горизонтальная дальность видимости в метрах или километрах. При видимости от 1 до 10 км при отсутствии осадков обычно наблюдается дымка, при ухудшении видимости до 1 км и менее - туман. В сухую погоду видимость может ухудшаться дымом, пылью или мглою.
Явления - указаны атмосферные явления, наблюдавшиеся в срок или в последний час перед сроком; фигурными скобками обозначены явления, наблюдавшиеся между сроками (за 1-3 часа до срока); квадратными скобками обозначены град или гололедные отложения с указанием их диаметра в мм.
Облачность - указаны через наклонную черту общая и нижняя облачность в баллах и высота нижней границы облаков в метрах; квадратными скобками обозначены формы облаков: Ci - перистые, Cs - перисто-слоистые, Cc - перисто-кучевые, Ac - высококучевые, As - высокослоистые, Sc - слоисто-кучевые, Ns - слоисто-дождевые, Cu - кучевые, Cb - кучево-дождевые. Подробнее классификацию облаков см. в Атласе облаков (PDF).
T - Температура воздуха - температура, измеренная на высоте 2 м над землей.
Td - Температура точки росы - температура, при понижении до которой содержащийся в воздухе водяной пар достигнет насыщения.
f - Относительная влажность воздуха - влажноcть воздуха, измеренная на высоте 2 м над землей.
Te - Эффективная температура - температура, которую ощущает одетый по сезону человек в тени. Характеристика душности погоды. При расчете учитывается влияние влажности воздуха и скорости ветра на теплоощущения человека.
Tes - Эффективная температура на солнце - температура, которую ощущает человек, с поправкой на солнечный нагрев. Характеристика знойности погоды. Зависит от высоты солнца над горизонтом, облачности и скорости ветра. Ночью, в пасмурную погоду, а также при ветре 12 м/с и более поправка равна нулю.
P - Атмосферное давление - приведенное к уровню моря атмосферное давление.
Po - Атмосферное давление - измеренное на уровне метеостанции атмосферное давление.
Tmin - Минимальная температура - минимум температуры воздуха на высоте 2 м над землей.
Tmax - Максимальная температура - максимум температуры воздуха на высоте 2 м над землей.
R - Количество осадков - Количество выпавших осадков за период времени, мм. При наведении курсора мыши на число - период времени, за который выпало указанное количество осадков.
R24 - Количество осадков - Количество выпавших осадков за 24 часа, мм.
S - Снежный покров - Высота снежного покрова, см. При наведении курсора мыши на число - состояние снежного покрова и степень покрытия местности в баллах.